When you browse on this site, cookies collect data to enhance your experience and personalize the content and advertising you see.
Visit our Privacy Policy to learn more. By continuing to use the site, you agree to this use of cookies and data.
  • In Austria
  • List of Countries
  • For 7 days
  • Water Temperature
  • Weather Map
  • News
  • Weather Widgets
  • user-avatar
    Login

    Hourly Weather Gabrovo

    Today, 18 October, Friday

    Time Temperature Precipitation Wind Pressure Humidity
    00:00 +14°C° 0 mm 1 mps 704 mmHg 62%
    01:00 +13°C° 0 mm 0 mps 703 mmHg 63%
    02:00 +12°C° 0 mm 0 mps 704 mmHg 63%
    03:00 +12°C° 0 mm 0 mps 703 mmHg 64%
    04:00 +12°C° 0 mm 0 mps 703 mmHg 66%
    05:00 +12°C° 0 mm 0 mps 703 mmHg 67%
    06:00 +12°C° 0 mm 0 mps 703 mmHg 64%
    07:00 +13°C° 0 mm 0 mps 704 mmHg 62%
    08:00 +14°C° 0 mm 0 mps 704 mmHg 59%
    09:00 +16°C° 0 mm 0 mps 704 mmHg 53%
    10:00 +20°C° 0 mm 1 mps 705 mmHg 47%
    11:00 +22°C° 0 mm 1 mps 705 mmHg 41%
    12:00 +23°C° 0 mm 1 mps 705 mmHg 39%
    13:00 +24°C° 0 mm 1 mps 704 mmHg 36%
    14:00 +24°C° 0 mm 2 mps 704 mmHg 34%
    15:00 +23°C° 0 mm 2 mps 704 mmHg 38%
    16:00 +22°C° 0 mm 1 mps 703 mmHg 41%
    17:00 +21°C° 0 mm 1 mps 703 mmHg 45%
    18:00 +20°C° 0 mm 1 mps 703 mmHg 48%
    19:00 +18°C° 0 mm 1 mps 703 mmHg 52%
    20:00 +16°C° 0 mm 1 mps 703 mmHg 56%
    21:00 +16°C° 0 mm 1 mps 703 mmHg 57%
    22:00 +15°C° 0 mm 1 mps 703 mmHg 58%
    23:00 +15°C° 0 mm 1 mps 703 mmHg 59%

    Tomorrow, 19 October, Saturday

    Time Temperature Precipitation Wind Pressure Humidity
    00:00 +15°C° 0 mm 1 mps 703 mmHg 61%
    01:00 +14°C° 0 mm 1 mps 703 mmHg 62%
    02:00 +14°C° 0 mm 1 mps 703 mmHg 64%
    03:00 +12°C° 0 mm 0 mps 703 mmHg 65%
    04:00 +12°C° 0 mm 0 mps 703 mmHg 66%
    05:00 +12°C° 0 mm 0 mps 703 mmHg 67%
    06:00 +13°C° 0 mm 0 mps 703 mmHg 64%
    07:00 +14°C° 0 mm 0 mps 703 mmHg 61%
    08:00 +15°C° 0 mm 0 mps 704 mmHg 59%
    09:00 +17°C° 0 mm 0 mps 704 mmHg 53%
    10:00 +21°C° 0 mm 1 mps 704 mmHg 47%
    11:00 +23°C° 0 mm 1 mps 705 mmHg 41%
    12:00 +23°C° 0 mm 1 mps 705 mmHg 40%
    13:00 +24°C° 0 mm 2 mps 704 mmHg 38%
    14:00 +24°C° 0 mm 2 mps 704 mmHg 37%
    15:00 +23°C° 0 mm 2 mps 704 mmHg 40%
    16:00 +21°C° 0 mm 2 mps 704 mmHg 44%
    17:00 +21°C° 0 mm 1 mps 703 mmHg 48%
    18:00 +20°C° 0 mm 1 mps 703 mmHg 51%
    19:00 +19°C° 0 mm 1 mps 703 mmHg 54%
    20:00 +16°C° 0 mm 1 mps 704 mmHg 58%
    21:00 +16°C° 0 mm 1 mps 704 mmHg 59%
    22:00 +15°C° 0 mm 1 mps 704 mmHg 60%
    23:00 +15°C° 0 mm 1 mps 704 mmHg 61%

    Day after tomorrow, 20 October, Sunday

    Time Temperature Precipitation Wind Pressure Humidity
    00:00 +15°C° 0 mm 1 mps 704 mmHg 63%
    01:00 +14°C° 0 mm 1 mps 704 mmHg 65%
    02:00 +14°C° 0 mm 1 mps 704 mmHg 66%
    03:00 +13°C° 0 mm 0 mps 704 mmHg 68%
    04:00 +12°C° 0 mm 0 mps 704 mmHg 69%
    05:00 +12°C° 0 mm 0 mps 704 mmHg 70%
    06:00 +13°C° 0 mm 0 mps 704 mmHg 67%
    07:00 +14°C° 0 mm 0 mps 705 mmHg 65%
    08:00 +15°C° 0 mm 0 mps 705 mmHg 62%
    09:00 +17°C° 0 mm 0 mps 705 mmHg 55%
    10:00 +21°C° 0 mm 1 mps 706 mmHg 49%
    11:00 +23°C° 0 mm 1 mps 706 mmHg 43%
    12:00 +24°C° 0 mm 1 mps 706 mmHg 41%
    13:00 +24°C° 0 mm 1 mps 706 mmHg 39%
    14:00 +25°C° 0 mm 2 mps 706 mmHg 37%
    15:00 +24°C° 0 mm 2 mps 705 mmHg 41%
    16:00 +23°C° 0 mm 1 mps 705 mmHg 45%
    17:00 +21°C° 0 mm 1 mps 705 mmHg 49%
    18:00 +20°C° 0 mm 1 mps 705 mmHg 53%
    19:00 +19°C° 0 mm 1 mps 705 mmHg 57%
    20:00 +18°C° 0 mm 1 mps 705 mmHg 60%
    21:00 +16°C° 0 mm 1 mps 705 mmHg 62%
    22:00 +16°C° 0 mm 1 mps 705 mmHg 64%
    23:00 +15°C° 0 mm 1 mps 705 mmHg 66%

    21 October, Monday

    Time Temperature Precipitation Wind Pressure Humidity
    00:00 +15°C° 0 mm 1 mps 705 mmHg 68%
    01:00 +14°C° 0 mm 1 mps 705 mmHg 69%
    02:00 +13°C° 0 mm 0 mps 705 mmHg 71%
    03:00 +13°C° 0 mm 0 mps 705 mmHg 72%
    04:00 +12°C° 0 mm 0 mps 705 mmHg 73%
    05:00 +12°C° 0 mm 0 mps 705 mmHg 74%
    06:00 +13°C° 0 mm 0 mps 705 mmHg 71%
    07:00 +14°C° 0 mm 0 mps 706 mmHg 68%
    08:00 +15°C° 0 mm 0 mps 706 mmHg 65%
    09:00 +17°C° 0 mm 0 mps 706 mmHg 57%
    10:00 +19°C° 0 mm 0 mps 707 mmHg 50%
    11:00 +23°C° 0 mm 1 mps 707 mmHg 43%
    12:00 +24°C° 0 mm 1 mps 707 mmHg 40%
    13:00 +24°C° 0 mm 1 mps 707 mmHg 37%
    14:00 +25°C° 0 mm 1 mps 707 mmHg 35%
    15:00 +24°C° 0 mm 1 mps 706 mmHg 38%
    16:00 +22°C° 0 mm 1 mps 706 mmHg 42%
    17:00 +21°C° 0 mm 1 mps 706 mmHg 45%
    18:00 +20°C° 0 mm 1 mps 706 mmHg 48%
    19:00 +19°C° 0 mm 1 mps 706 mmHg 52%
    20:00 +16°C° 0 mm 1 mps 706 mmHg 55%
    21:00 +16°C° 0 mm 1 mps 706 mmHg 57%
    22:00 +15°C° 0 mm 1 mps 706 mmHg 58%
    23:00 +15°C° 0 mm 1 mps 706 mmHg 60%

    22 October, Tuesday

    Time Temperature Precipitation Wind Pressure Humidity
    00:00 +14°C° 0 mm 1 mps 706 mmHg 61%
    01:00 +13°C° 0 mm 0 mps 705 mmHg 62%
    02:00 +13°C° 0 mm 0 mps 705 mmHg 63%
    03:00 +12°C° 0 mm 0 mps 705 mmHg 63%
    04:00 +12°C° 0 mm 0 mps 705 mmHg 64%
    05:00 +12°C° 0 mm 0 mps 705 mmHg 64%
    06:00 +14°C° 0 mm 1 mps 705 mmHg 62%
    07:00 +15°C° 0 mm 1 mps 706 mmHg 59%
    08:00 +15°C° 0 mm 1 mps 706 mmHg 57%
    09:00 +19°C° 0 mm 1 mps 706 mmHg 50%
    10:00 +21°C° 0 mm 1 mps 707 mmHg 43%
    11:00 +23°C° 0 mm 1 mps 707 mmHg 36%
    12:00 +24°C° 0 mm 1 mps 707 mmHg 34%
    13:00 +25°C° 0 mm 1 mps 707 mmHg 32%
    14:00 +26°C° 0 mm 1 mps 706 mmHg 30%
    15:00 +24°C° 0 mm 1 mps 706 mmHg 34%
    16:00 +23°C° 0 mm 1 mps 706 mmHg 38%
    17:00 +21°C° 0 mm 1 mps 705 mmHg 43%
    18:00 +20°C° 0 mm 1 mps 705 mmHg 46%
    19:00 +19°C° 0 mm 1 mps 705 mmHg 49%
    20:00 +16°C° 0 mm 1 mps 705 mmHg 53%
    21:00 +16°C° 0 mm 1 mps 705 mmHg 54%
    22:00 +16°C° 0 mm 1 mps 706 mmHg 55%
    23:00 +15°C° 0 mm 1 mps 706 mmHg 56%

    23 October, Wednesday

    Time Temperature Precipitation Wind Pressure Humidity
    00:00 +15°C° 0 mm 1 mps 706 mmHg 57%
    01:00 +15°C° 0 mm 1 mps 706 mmHg 59%
    02:00 +14°C° 0 mm 1 mps 706 mmHg 60%
    03:00 +14°C° 0 mm 1 mps 706 mmHg 61%
    04:00 +14°C° 0 mm 1 mps 706 mmHg 63%
    05:00 +13°C° 0 mm 1 mps 706 mmHg 64%
    06:00 +14°C° 0 mm 1 mps 706 mmHg 63%
    07:00 +14°C° 0 mm 0 mps 706 mmHg 61%
    08:00 +14°C° 0 mm 0 mps 707 mmHg 59%
    09:00 +16°C° 0 mm 0 mps 707 mmHg 53%
    10:00 +20°C° 0 mm 1 mps 707 mmHg 47%
    11:00 +22°C° 0 mm 1 mps 707 mmHg 40%
    12:00 +23°C° 0 mm 1 mps 707 mmHg 39%
    13:00 +23°C° 0 mm 1 mps 707 mmHg 38%
    14:00 +24°C° 0 mm 2 mps 707 mmHg 37%
    15:00 +23°C° 0 mm 2 mps 706 mmHg 40%
    16:00 +21°C° 0 mm 1 mps 706 mmHg 44%
    17:00 +20°C° 0 mm 1 mps 706 mmHg 48%
    18:00 +19°C° 0 mm 1 mps 706 mmHg 52%
    19:00 +18°C° 0 mm 1 mps 706 mmHg 57%
    20:00 +15°C° 0 mm 1 mps 706 mmHg 62%
    21:00 +14°C° 0 mm 1 mps 706 mmHg 69%
    22:00 +14°C° 0 mm 1 mps 706 mmHg 75%
    23:00 +13°C° 0 mm 1 mps 706 mmHg 82%
    Show more